M I D A S
Marine Information and Data Acquisition System
Tripno 817 of the Zeeleeuw from 2004-12-10 08:16:39 to 2004-12-10 13:07:11
Back to CruiseResearch ActivitiesStationsMapUnderway DataData graphs

EquipmentUnitsComments
TimeDGPSUTC
LatitudeDGPSDM.mWGS84
LongitudeDGPSDM.mWGS84
SpeedMeteo Stationm/sRelative wind speed
DirectionMeteo StationdegRelative wind direction
TemperatureMeteo Stationdeg CelciusAir temperature
PressureMeteo StationPaAtmospheric pressure
HumidityMeteo Station%Relative humidity
Missing or incorrect values are displayed as -999
Metereological data collected by the RV Zeeleeuw from 2004-12-10 07:56:23 to 2004-12-10 12:17:53
Time Latitude Longitude Speed Direction Temperature Pressure Humidity
2004-12-10 07:56:38 51°13.593 2°56.099 -999 -999 -999 -999 -999
2004-12-10 07:56:43 51°13.592 2°56.1 -999 -999 -999 -999 -999
2004-12-10 07:56:49 51°13.591 2°56.102 -999 -999 -999 -999 -999
2004-12-10 07:56:54 51°13.589 2°56.104 -999 -999 -999 -999 -999
2004-12-10 07:56:56 51°13.589 2°56.105 -999 -999 -999 -999 -999
2004-12-10 07:57:04 51°13.586 2°56.109 -999 -999 -999 -999 -999
2004-12-10 07:57:09 51°13.584 2°56.112 -999 -999 -999 -999 -999
2004-12-10 07:57:14 51°13.583 2°56.114 -999 -999 -999 -999 -999
2004-12-10 07:57:16 51°13.582 2°56.115 -999 -999 -999 -999 -999
2004-12-10 07:57:23 51°13.579 2°56.12 -999 -999 -999 -999 -999
2004-12-10 07:57:26 51°13.578 2°56.122 -999 -999 -999 -999 -999
2004-12-10 07:57:34 51°13.575 2°56.127 -999 -999 -999 -999 -999
2004-12-10 07:57:44 51°13.572 2°56.133 -999 -999 -999 -999 -999
2004-12-10 07:57:51 51°13.569 2°56.137 -999 -999 -999 -999 -999
2004-12-10 07:57:56 51°13.568 2°56.14 -999 -999 -999 -999 -999
2004-12-10 07:58:01 51°13.566 2°56.143 -999 -999 -999 -999 -999
2004-12-10 07:58:04 51°13.566 2°56.145 -999 -999 -999 -999 -999
2004-12-10 07:58:11 51°13.563 2°56.149 -999 -999 -999 -999 -999
2004-12-10 07:58:15 51°13.563 2°56.151 -999 -999 -999 -999 -999
2004-12-10 07:58:21 51°13.561 2°56.154 -999 -999 -999 -999 -999
2004-12-10 07:58:26 51°13.56 2°56.156 -999 -999 -999 -999 -999
2004-12-10 07:58:31 51°13.559 2°56.158 -999 -999 -999 -999 -999
2004-12-10 07:58:34 51°13.558 2°56.16 -999 -999 -999 -999 -999
2004-12-10 07:58:45 51°13.557 2°56.164 -999 -999 -999 -999 -999
2004-12-10 07:58:51 51°13.556 2°56.165 -999 -999 -999 -999 -999
2004-12-10 07:58:55 51°13.555 2°56.166 -999 -999 -999 -999 -999
2004-12-10 07:58:58 51°13.555 2°56.167 -999 -999 -999 -999 -999
2004-12-10 07:59:16 51°13.554 2°56.172 -999 -999 -999 -999 -999
2004-12-10 07:59:26 51°13.554 2°56.173 -999 -999 -999 -999 -999
2004-12-10 07:59:31 51°13.554 2°56.174 -999 -999 -999 -999 -999
2004-12-10 07:59:35 51°13.554 2°56.174 -999 -999 -999 -999 -999
2004-12-10 07:59:41 51°13.554 2°56.175 -999 -999 -999 -999 -999
2004-12-10 08:00:08 51°13.557 2°56.168 -999 -999 -999 -999 -999
2004-12-10 08:00:14 51°13.558 2°56.166 -999 -999 -999 -999 -999
2004-12-10 08:00:18 51°13.559 2°56.164 -999 -999 -999 -999 -999
2004-12-10 08:00:24 51°13.56 2°56.159 -999 -999 -999 -999 -999
2004-12-10 08:00:29 51°13.562 2°56.155 -999 -999 -999 -999 -999
2004-12-10 08:00:34 51°13.563 2°56.15 -999 -999 -999 -999 -999
2004-12-10 08:00:39 51°13.565 2°56.144 -999 -999 -999 -999 -999
2004-12-10 08:00:43 51°13.567 2°56.139 -999 -999 -999 -999 -999
2004-12-10 08:00:49 51°13.569 2°56.131 -999 -999 -999 -999 -999
2004-12-10 08:00:54 51°13.571 2°56.125 -999 -999 -999 -999 -999
2004-12-10 08:00:59 51°13.573 2°56.12 -999 -999 -999 -999 -999
2004-12-10 08:01:04 51°13.575 2°56.114 -999 -999 -999 -999 -999
2004-12-10 08:01:07 51°13.575 2°56.111 -999 -999 -999 -999 -999
2004-12-10 08:01:13 51°13.578 2°56.105 -999 -999 -999 -999 -999
2004-12-10 08:01:19 51°13.58 2°56.099 -999 -999 -999 -999 -999
2004-12-10 08:01:23 51°13.581 2°56.095 -999 -999 -999 -999 -999
2004-12-10 08:01:29 51°13.583 2°56.089 -999 -999 -999 -999 -999
2004-12-10 08:01:33 51°13.584 2°56.086 -999 -999 -999 -999 -999
2004-12-10 08:01:39 51°13.585 2°56.082 -999 -999 -999 -999 -999
2004-12-10 08:01:44 51°13.587 2°56.079 -999 -999 -999 -999 -999
2004-12-10 08:01:49 51°13.588 2°56.077 -999 -999 -999 -999 -999
2004-12-10 08:01:53 51°13.588 2°56.075 -999 -999 -999 -999 -999
2004-12-10 08:01:57 51°13.589 2°56.073 -999 -999 -999 -999 -999
2004-12-10 08:02:16 51°13.591 2°56.068 -999 -999 -999 -999 -999
2004-12-10 08:02:27 51°13.592 2°56.068 -999 -999 -999 -999 -999
2004-12-10 08:02:29 51°13.592 2°56.069 -999 -999 -999 -999 -999
2004-12-10 08:02:45 51°13.592 2°56.074 -999 -999 -999 -999 -999
2004-12-10 08:02:50 51°13.593 2°56.076 -999 -999 -999 -999 -999
2004-12-10 08:02:55 51°13.593 2°56.079 -999 -999 -999 -999 -999
2004-12-10 08:03:01 51°13.593 2°56.082 -999 -999 -999 -999 -999
2004-12-10 08:03:03 51°13.593 2°56.082 -999 -999 -999 -999 -999
2004-12-10 08:03:20 51°13.594 2°56.087 -999 -999 -999 -999 -999
2004-12-10 08:03:27 51°13.595 2°56.091 -999 -999 -999 -999 -999
2004-12-10 08:03:32 51°13.595 2°56.094 -999 -999 -999 -999 -999
2004-12-10 08:03:37 51°13.595 2°56.096 -999 -999 -999 -999 -999
2004-12-10 08:03:41 51°13.595 2°56.098 -999 -999 -999 -999 -999
2004-12-10 08:03:47 51°13.596 2°56.1 -999 -999 -999 -999 -999
2004-12-10 08:03:50 51°13.596 2°56.101 -999 -999 -999 -999 -999
2004-12-10 08:04:08 51°13.596 2°56.104 -999 -999 -999 -999 -999
2004-12-10 08:04:13 51°13.596 2°56.104 -999 -999 -999 -999 -999
2004-12-10 08:04:19 51°13.596 2°56.105 -999 -999 -999 -999 -999
2004-12-10 08:04:23 51°13.596 2°56.105 -999 -999 -999 -999 -999
2004-12-10 08:04:29 51°13.597 2°56.105 -999 -999 -999 -999 -999
2004-12-10 08:04:34 51°13.597 2°56.105 -999 -999 -999 -999 -999
2004-12-10 08:04:39 51°13.597 2°56.105 -999 -999 -999 -999 -999
2004-12-10 08:04:43 51°13.596 2°56.105 -999 -999 -999 -999 -999
2004-12-10 08:04:47 51°13.597 2°56.105 -999 -999 -999 -999 -999
2004-12-10 08:04:53 51°13.596 2°56.105 -999 -999 -999 -999 -999
2004-12-10 08:04:59 51°13.597 2°56.106 -999 -999 -999 -999 -999
2004-12-10 08:05:00 51°13.597 2°56.106 -999 -999 -999 -999 -999
2004-12-10 08:05:08 51°13.597 2°56.106 -999 -999 -999 -999 -999
2004-12-10 08:05:13 51°13.597 2°56.107 -999 -999 -999 -999 -999
2004-12-10 08:05:31 51°13.597 2°56.107 -999 -999 -999 -999 -999
2004-12-10 08:05:37 51°13.597 2°56.107 -999 -999 -999 -999 -999
2004-12-10 08:05:43 51°13.598 2°56.107 -999 -999 -999 -999 -999
2004-12-10 08:05:47 51°13.598 2°56.107 -999 -999 -999 -999 -999
2004-12-10 08:05:53 51°13.598 2°56.107 -999 -999 -999 -999 -999
2004-12-10 08:05:57 51°13.598 2°56.107 -999 -999 -999 -999 -999
2004-12-10 08:06:03 51°13.598 2°56.107 -999 -999 -999 -999 -999
2004-12-10 08:06:08 51°13.598 2°56.106 -999 -999 -999 -999 -999
2004-12-10 08:06:11 51°13.598 2°56.106 -999 -999 -999 -999 -999
2004-12-10 08:06:17 51°13.598 2°56.106 -999 -999 -999 -999 -999
2004-12-10 08:06:23 51°13.598 2°56.106 -999 -999 -999 -999 -999
2004-12-10 08:06:34 51°13.598 2°56.106 -999 -999 -999 -999 -999
2004-12-10 08:06:39 51°13.598 2°56.106 -999 -999 -999 -999 -999
2004-12-10 08:06:43 51°13.598 2°56.106 -999 -999 -999 -999 -999
2004-12-10 08:06:49 51°13.598 2°56.106 -999 -999 -999 -999 -999
2004-12-10 08:06:53 51°13.598 2°56.106 -999 -999 -999 -999 -999
2004-12-10 08:06:59 51°13.598 2°56.106 -999 -999 -999 -999 -999
2004-12-10 08:07:03 51°13.598 2°56.106 -999 -999 -999 -999 -999
2004-12-10 08:07:07 51°13.599 2°56.107 -999 -999 -999 -999 -999
2004-12-10 08:07:14 51°13.598 2°56.107 -999 -999 -999 -999 -999
2004-12-10 08:07:19 51°13.598 2°56.107 -999 -999 -999 -999 -999
2004-12-10 08:07:24 51°13.598 2°56.106 -999 -999 -999 -999 -999
2004-12-10 08:07:28 51°13.598 2°56.106 -999 -999 -999 -999 -999
2004-12-10 08:07:33 51°13.598 2°56.106 -999 -999 -999 -999 -999
2004-12-10 08:07:39 51°13.598 2°56.105 -999 -999 -999 -999 -999
2004-12-10 08:07:44 51°13.598 2°56.105 -999 -999 -999 -999 -999
2004-12-10 08:07:49 51°13.598 2°56.105 -999 -999 -999 -999 -999
2004-12-10 08:07:52 51°13.598 2°56.105 -999 -999 -999 -999 -999
2004-12-10 08:07:57 51°13.598 2°56.105 -999 -999 -999 -999 -999
2004-12-10 08:08:19 51°13.598 2°56.106 -999 -999 -999 -999 -999
2004-12-10 08:08:36 51°13.598 2°56.106 -999 -999 -999 -999 -999
2004-12-10 08:08:42 51°13.598 2°56.107 -999 -999 -999 -999 -999
2004-12-10 08:08:47 51°13.598 2°56.107 -999 -999 -999 -999 -999
2004-12-10 08:08:52 51°13.598 2°56.107 -999 -999 -999 -999 -999
2004-12-10 08:08:57 51°13.598 2°56.107 -999 -999 -999 -999 -999
2004-12-10 08:09:00 51°13.598 2°56.107 -999 -999 -999 -999 -999
2004-12-10 08:09:07 51°13.598 2°56.106 -999 -999 -999 -999 -999
2004-12-10 08:09:19 51°13.598 2°56.106 -999 -999 -999 -999 -999
2004-12-10 08:09:21 51°13.598 2°56.106 -999 -999 -999 -999 -999
2004-12-10 08:09:50 51°13.599 2°56.106 -999 -999 -999 -999 -999
2004-12-10 08:09:54 51°13.599 2°56.106 -999 -999 -999 -999 -999
2004-12-10 08:09:59 51°13.599 2°56.106 -999 -999 -999 -999 -999
2004-12-10 08:10:02 51°13.599 2°56.106 -999 -999 -999 -999 -999
2004-12-10 08:10:20 51°13.599 2°56.106 -999 -999 -999 -999 -999
2004-12-10 08:10:30 51°13.599 2°56.106 -999 -999 -999 -999 -999
2004-12-10 08:10:33 51°13.599 2°56.106 -999 -999 -999 -999 -999
2004-12-10 08:10:38 51°13.599 2°56.106 -999 -999 -999 -999 -999
2004-12-10 08:10:57 51°13.599 2°56.108 -999 -999 -999 -999 -999
2004-12-10 08:11:01 51°13.599 2°56.108 -999 -999 -999 -999 -999
2004-12-10 08:11:06 51°13.599 2°56.109 -999 -999 -999 -999 -999
2004-12-10 08:11:12 51°13.599 2°56.109 -999 -999 -999 -999 -999
2004-12-10 08:11:16 51°13.599 2°56.109 -999 -999 -999 -999 -999
2004-12-10 08:11:18 51°13.599 2°56.109 -999 -999 -999 -999 -999
2004-12-10 08:11:27 51°13.599 2°56.108 -999 -999 -999 -999 -999
2004-12-10 08:11:33 51°13.599 2°56.108 -999 -999 -999 -999 -999
2004-12-10 08:11:38 51°13.599 2°56.108 -999 -999 -999 -999 -999
2004-12-10 08:11:40 51°13.599 2°56.108 -999 -999 -999 -999 -999
2004-12-10 08:11:46 51°13.599 2°56.108 -999 -999 -999 -999 -999
2004-12-10 08:11:52 51°13.599 2°56.108 -999 -999 -999 -999 -999
2004-12-10 08:11:56 51°13.599 2°56.108 -999 -999 -999 -999 -999
2004-12-10 08:12:00 51°13.599 2°56.108 -999 -999 -999 -999 -999
2004-12-10 08:12:06 51°13.599 2°56.108 -999 -999 -999 -999 -999
2004-12-10 08:12:12 51°13.599 2°56.108 -999 -999 -999 -999 -999
2004-12-10 08:12:17 51°13.599 2°56.108 -999 -999 -999 -999 -999
2004-12-10 08:12:22 51°13.598 2°56.108 -999 -999 -999 -999 -999
2004-12-10 08:12:24 51°13.598 2°56.108 -999 -999 -999 -999 -999
2004-12-10 08:12:32 51°13.598 2°56.108 -999 -999 -999 -999 -999
2004-12-10 08:12:38 51°13.598 2°56.108 -999 -999 -999 -999 -999
2004-12-10 08:12:42 51°13.599 2°56.107 -999 -999 -999 -999 -999
2004-12-10 08:12:48 51°13.599 2°56.107 -999 -999 -999 -999 -999
2004-12-10 08:12:51 51°13.599 2°56.107 -999 -999 -999 -999 -999
2004-12-10 08:12:56 51°13.599 2°56.107 -999 -999 -999 -999 -999
2004-12-10 08:13:00 51°13.599 2°56.107 -999 -999 -999 -999 -999
2004-12-10 08:13:14 51°13.599 2°56.107 -999 -999 -999 -999 -999
2004-12-10 08:13:16 51°13.599 2°56.107 -999 -999 -999 -999 -999
2004-12-10 08:13:24 51°13.599 2°56.107 -999 -999 -999 -999 -999
2004-12-10 08:13:28 51°13.599 2°56.107 -999 -999 -999 -999 -999
2004-12-10 08:13:34 51°13.599 2°56.107 -999 -999 -999 -999 -999
2004-12-10 08:13:45 51°13.599 2°56.108 -999 -999 -999 -999 -999
2004-12-10 08:13:48 51°13.599 2°56.108 -999 -999 -999 -999 -999
2004-12-10 08:13:54 51°13.599 2°56.107 -999 -999 -999 -999 -999
2004-12-10 08:14:02 51°13.598 2°56.107 -999 -999 -999 -999 -999
2004-12-10 08:14:04 51°13.598 2°56.107 -999 -999 -999 -999 -999
2004-12-10 08:14:18 51°13.598 2°56.107 -999 -999 -999 -999 -999
2004-12-10 08:14:22 51°13.598 2°56.107 -999 -999 -999 -999 -999
2004-12-10 08:14:26 51°13.598 2°56.107 -999 -999 -999 -999 -999
2004-12-10 08:14:32 51°13.598 2°56.107 -999 -999 -999 -999 -999
2004-12-10 08:14:36 51°13.598 2°56.107 -999 -999 -999 -999 -999
2004-12-10 08:14:46 51°13.598 2°56.106 -999 -999 -999 -999 -999
2004-12-10 08:14:52 51°13.598 2°56.106 -999 -999 -999 -999 -999
2004-12-10 08:15:22 51°13.598 2°56.108 -999 -999 -999 -999 -999
2004-12-10 08:15:26 51°13.598 2°56.108 -999 -999 -999 -999 -999
2004-12-10 08:15:32 51°13.598 2°56.108 -999 -999 -999 -999 -999
2004-12-10 08:15:34 51°13.598 2°56.108 -999 -999 -999 -999 -999
2004-12-10 08:15:44 51°13.598 2°56.108 -999 -999 -999 -999 -999
2004-12-10 08:15:50 51°13.598 2°56.107 -999 -999 -999 -999 -999
2004-12-10 08:15:56 51°13.598 2°56.107 -999 -999 -999 -999 -999
2004-12-10 08:16:00 51°13.598 2°56.107 -999 -999 -999 -999 -999
2004-12-10 08:16:09 51°13.597 2°56.107 -999 -999 -999 -999 -999
2004-12-10 08:16:14 51°13.597 2°56.106 -999 -999 -999 -999 -999
2004-12-10 08:16:20 51°13.597 2°56.106 -999 -999 -999 -999 -999
2004-12-10 08:16:26 51°13.598 2°56.106 -999 -999 -999 -999 -999
2004-12-10 08:16:30 51°13.598 2°56.106 -999 -999 -999 -999 -999
2004-12-10 08:16:33 51°13.598 2°56.106 -999 -999 -999 -999 -999
2004-12-10 08:16:39 51°13.597 2°56.106 -999 -999 -999 -999 -999
2004-12-10 08:16:52 51°13.597 2°56.106 -999 -999 -999 -999 -999
2004-12-10 08:16:58 51°13.597 2°56.106 -999 -999 -999 -999 -999
2004-12-10 08:17:00 51°13.597 2°56.106 -999 -999 -999 -999 -999
2004-12-10 08:17:06 51°13.597 2°56.106 -999 -999 -999 -999 -999
2004-12-10 08:17:09 51°13.597 2°56.106 -999 -999 -999 -999 -999
2004-12-10 08:17:21 51°13.597 2°56.107 -999 -999 -999 -999 -999
2004-12-10 08:17:26 51°13.597 2°56.107 -999 -999 -999 -999 -999
2004-12-10 08:17:32 51°13.597 2°56.107 -999 -999 -999 -999 -999
2004-12-10 08:17:37 51°13.597 2°56.107 -999 -999 -999 -999 -999
2004-12-10 08:17:42 51°13.597 2°56.107 -999 -999 -999 -999 -999
2004-12-10 08:17:52 51°13.597 2°56.107 -999 -999 -999 -999 -999
2004-12-10 08:17:54 51°13.597 2°56.107 -999 -999 -999 -999 -999
2004-12-10 08:18:02 51°13.597 2°56.107 -999 -999 -999 -999 -999
2004-12-10 08:18:05 51°13.597 2°56.106 -999 -999 -999 -999 -999
2004-12-10 08:18:12 51°13.597 2°56.106 -999 -999 -999 -999 -999
2004-12-10 08:18:16 51°13.598 2°56.106 -999 -999 -999 -999 -999
2004-12-10 08:18:22 51°13.598 2°56.106 -999 -999 -999 -999 -999
2004-12-10 08:18:24 51°13.598 2°56.106 -999 -999 -999 -999 -999
2004-12-10 08:18:30 51°13.597 2°56.106 -999 -999 -999 -999 -999
2004-12-10 08:18:35 51°13.597 2°56.106 -999 -999 -999 -999 -999
2004-12-10 08:18:46 51°13.597 2°56.103 -999 -999 -999 -999 -999
2004-12-10 08:18:50 51°13.597 2°56.101 -999 -999 -999 -999 -999
2004-12-10 08:18:58 51°13.599 2°56.096 -999 -999 -999 -999 -999
2004-12-10 08:19:02 51°13.599 2°56.093 -999 -999 -999 -999 -999
2004-12-10 08:19:06 51°13.6 2°56.089 -999 -999 -999 -999 -999
2004-12-10 08:19:10 51°13.601 2°56.086 -999 -999 -999 -999 -999
2004-12-10 08:19:19 51°13.603 2°56.077 -999 -999 -999 -999 -999
2004-12-10 08:19:30 51°13.606 2°56.065 -999 -999 -999 -999 -999
2004-12-10 08:19:35 51°13.608 2°56.059 -999 -999 -999 -999 -999
2004-12-10 08:19:39 51°13.609 2°56.054 -999 -999 -999 -999 -999
2004-12-10 08:19:44 51°13.611 2°56.047 -999 -999 -999 -999 -999
2004-12-10 08:19:48 51°13.612 2°56.042 -999 -999 -999 -999 -999
2004-12-10 08:19:55 51°13.615 2°56.032 -999 -999 -999 -999 -999
2004-12-10 08:20:00 51°13.617 2°56.024 -999 -999 -999 -999 -999
2004-12-10 08:20:05 51°13.618 2°56.017 -999 -999 -999 -999 -999
2004-12-10 08:20:10 51°13.62 2°56.009 -999 -999 -999 -999 -999
2004-12-10 08:20:13 51°13.621 2°56.005 -999 -999 -999 -999 -999
2004-12-10 08:20:20 51°13.624 2°55.994 -999 -999 -999 -999 -999
2004-12-10 08:20:24 51°13.626 2°55.988 -999 -999 -999 -999 -999
2004-12-10 08:20:30 51°13.629 2°55.978 -999 -999 -999 -999 -999
2004-12-10 08:20:35 51°13.632 2°55.97 -999 -999 -999 -999 -999
2004-12-10 08:20:39 51°13.634 2°55.963 -999 -999 -999 -999 -999
2004-12-10 08:20:44 51°13.637 2°55.955 -999 -999 -999 -999 -999
2004-12-10 08:20:50 51°13.64 2°55.945 -999 -999 -999 -999 -999
2004-12-10 08:20:55 51°13.643 2°55.936 -999 -999 -999 -999 -999
2004-12-10 08:21:00 51°13.647 2°55.928 -999 -999 -999 -999 -999
2004-12-10 08:21:02 51°13.648 2°55.925 -999 -999 -999 -999 -999
2004-12-10 08:21:10 51°13.653 2°55.911 -999 -999 -999 -999 -999
2004-12-10 08:21:12 51°13.654 2°55.908 -999 -999 -999 -999 -999
2004-12-10 08:21:25 51°13.663 2°55.886 -999 -999 -999 -999 -999
2004-12-10 08:21:34 51°13.668 2°55.871 -999 -999 -999 -999 -999
2004-12-10 08:21:39 51°13.672 2°55.862 -999 -999 -999 -999 -999
2004-12-10 08:21:44 51°13.675 2°55.854 -999 -999 -999 -999 -999
2004-12-10 08:21:46 51°13.676 2°55.85 -999 -999 -999 -999 -999
2004-12-10 08:22:03 51°13.686 2°55.821 -999 -999 -999 -999 -999
2004-12-10 08:22:16 51°13.693 2°55.799 -999 -999 -999 -999 -999
2004-12-10 08:22:23 51°13.697 2°55.787 -999 -999 -999 -999 -999
2004-12-10 08:22:26 51°13.698 2°55.782 -999 -999 -999 -999 -999
2004-12-10 08:22:42 51°13.704 2°55.755 -999 -999 -999 -999 -999
2004-12-10 08:22:46 51°13.704 2°55.75 -999 -999 -999 -999 -999
2004-12-10 08:22:52 51°13.705 2°55.745 -999 -999 -999 -999 -999
2004-12-10 08:22:55 51°13.706 2°55.742 -999 -999 -999 -999 -999
2004-12-10 08:23:01 51°13.706 2°55.74 -999 -999 -999 -999 -999
2004-12-10 08:23:04 51°13.707 2°55.74 -999 -999 -999 -999 -999
2004-12-10 08:23:22 51°13.71 2°55.746 -999 -999 -999 -999 -999
2004-12-10 08:23:25 51°13.711 2°55.748 -999 -999 -999 -999 -999
2004-12-10 08:23:38 51°13.715 2°55.754 -999 -999 -999 -999 -999
2004-12-10 08:23:42 51°13.715 2°55.755 -999 -999 -999 -999 -999
2004-12-10 08:23:45 51°13.715 2°55.755 -999 -999 -999 -999 -999
2004-12-10 08:23:54 51°13.715 2°55.755 -999 -999 -999 -999 -999
2004-12-10 08:23:58 51°13.714 2°55.753 -999 -999 -999 -999 -999
2004-12-10 08:24:03 51°13.713 2°55.752 -999 -999 -999 -999 -999
2004-12-10 08:24:09 51°13.71 2°55.749 -999 -999 -999 -999 -999
2004-12-10 08:24:14 51°13.709 2°55.747 -999 -999 -999 -999 -999
2004-12-10 08:24:18 51°13.707 2°55.746 -999 -999 -999 -999 -999
2004-12-10 08:24:23 51°13.706 2°55.744 -999 -999 -999 -999 -999
2004-12-10 08:24:28 51°13.705 2°55.744 -999 -999 -999 -999 -999
2004-12-10 08:24:33 51°13.705 2°55.744 -999 -999 -999 -999 -999
2004-12-10 08:24:39 51°13.706 2°55.745 -999 -999 -999 -999 -999
2004-12-10 08:24:44 51°13.707 2°55.745 -999 -999 -999 -999 -999
2004-12-10 08:24:47 51°13.708 2°55.746 -999 -999 -999 -999 -999
2004-12-10 08:24:55 51°13.711 2°55.747 -999 -999 -999 -999 -999
2004-12-10 08:25:03 51°13.716 2°55.747 -999 -999 -999 -999 -999
2004-12-10 08:25:06 51°13.718 2°55.747 -999 -999 -999 -999 -999
2004-12-10 08:25:13 51°13.723 2°55.745 -999 -999 -999 -999 -999
2004-12-10 08:25:17 51°13.726 2°55.743 -999 -999 -999 -999 -999
2004-12-10 08:25:22 51°13.73 2°55.74 -999 -999 -999 -999 -999
2004-12-10 08:25:27 51°13.734 2°55.736 -999 -999 -999 -999 -999
2004-12-10 08:25:37 51°13.743 2°55.727 -999 -999 -999 -999 -999
2004-12-10 08:25:44 51°13.75 2°55.719 -999 -999 -999 -999 -999
2004-12-10 08:25:45 51°13.751 2°55.718 -999 -999 -999 -999 -999
2004-12-10 08:25:52 51°13.758 2°55.709 -999 -999 -999 -999 -999
2004-12-10 08:25:58 51°13.765 2°55.702 -999 -999 -999 -999 -999
2004-12-10 08:26:03 51°13.771 2°55.695 -999 -999 -999 -999 -999
2004-12-10 08:26:08 51°13.778 2°55.688 -999 -999 -999 -999 -999
2004-12-10 08:26:13 51°13.785 2°55.68 -999 -999 -999 -999 -999
2004-12-10 08:26:15 51°13.788 2°55.676 -999 -999 -999 -999 -999
2004-12-10 08:26:29 51°13.81 2°55.654 -999 -999 -999 -999 -999
2004-12-10 08:26:32 51°13.815 2°55.649 -999 -999 -999 -999 -999
2004-12-10 08:26:38 51°13.825 2°55.64 -999 -999 -999 -999 -999
2004-12-10 08:26:45 51°13.837 2°55.627 -999 -999 -999 -999 -999
2004-12-10 08:26:56 51°13.857 2°55.611 -999 -999 -999 -999 -999
2004-12-10 08:26:58 51°13.86 2°55.608 -999 -999 -999 -999 -999
2004-12-10 08:27:14 51°13.89 2°55.586 -999 -999 -999 -999 -999
2004-12-10 08:27:20 51°13.902 2°55.577 -999 -999 -999 -999 -999
2004-12-10 08:27:23 51°13.908 2°55.572 -999 -999 -999 -999 -999
2004-12-10 08:27:27 51°13.915 2°55.566 -999 -999 -999 -999 -999
2004-12-10 08:27:38 51°13.936 2°55.551 -999 -999 -999 -999 -999
2004-12-10 08:27:44 51°13.947 2°55.542 -999 -999 -999 -999 -999
2004-12-10 08:27:55 51°13.969 2°55.526 -999 -999 -999 -999 -999
2004-12-10 08:28:00 51°13.98 2°55.521 -999 -999 -999 -999 -999
2004-12-10 08:28:05 51°13.99 2°55.515 -999 -999 -999 -999 -999
2004-12-10 08:28:10 51°14.001 2°55.508 -999 -999 -999 -999 -999
2004-12-10 08:28:15 51°14.011 2°55.5 -999 -999 -999 -999 -999
2004-12-10 08:28:21 51°14.023 2°55.49 -999 -999 -999 -999 -999
2004-12-10 08:28:24 51°14.029 2°55.485 -999 -999 -999 -999 -999
2004-12-10 08:28:28 51°14.037 2°55.479 -999 -999 -999 -999 -999
2004-12-10 08:28:38 51°14.059 2°55.464 -999 -999 -999 -999 -999
2004-12-10 08:28:42 51°14.067 2°55.458 -999 -999 -999 -999 -999
2004-12-10 08:28:51 51°14.087 2°55.445 -999 -999 -999 -999 -999
2004-12-10 08:29:00 51°14.107 2°55.432 -999 -999 -999 -999 -999
2004-12-10 08:29:04 51°14.115 2°55.425 -999 -999 -999 -999 -999
2004-12-10 08:29:10 51°14.127 2°55.413 -999 -999 -999 -999 -999
2004-12-10 08:29:14 51°14.136 2°55.406 -999 -999 -999 -999 -999
2004-12-10 08:29:19 51°14.147 2°55.398 -999 -999 -999 -999 -999
2004-12-10 08:29:24 51°14.158 2°55.389 -999 -999 -999 -999 -999
2004-12-10 08:29:30 51°14.171 2°55.378 -999 -999 -999 -999 -999
2004-12-10 08:29:34 51°14.18 2°55.37 -999 -999 -999 -999 -999
2004-12-10 08:29:38 51°14.188 2°55.361 -999 -999 -999 -999 -999
2004-12-10 08:29:43 51°14.198 2°55.349 -999 -999 -999 -999 -999
2004-12-10 08:29:49 51°14.21 2°55.334 -999 -999 -999 -999 -999
2004-12-10 08:30:00 51°14.232 2°55.305 -999 -999 -999 -999 -999
2004-12-10 08:30:05 51°14.242 2°55.291 -999 -999 -999 -999 -999
2004-12-10 08:30:06 51°14.244 2°55.288 -999 -999 -999 -999 -999
2004-12-10 08:30:14 51°14.26 2°55.263 -999 -999 -999 -999 -999
2004-12-10 08:30:25 51°14.28 2°55.225 -999 -999 -999 -999 -999
2004-12-10 08:30:35 51°14.301 2°55.19 -999 -999 -999 -999 -999
2004-12-10 08:30:39 51°14.309 2°55.176 -999 -999 -999 -999 -999
2004-12-10 08:30:50 51°14.33 2°55.134 -999 -999 -999 -999 -999
2004-12-10 08:30:54 51°14.337 2°55.118 -999 -999 -999 -999 -999
2004-12-10 08:31:00 51°14.346 2°55.093 -999 -999 -999 -999 -999
2004-12-10 08:31:06 51°14.356 2°55.068 -999 -999 -999 -999 -999
2004-12-10 08:31:10 51°14.363 2°55.051 -999 -999 -999 -999 -999
2004-12-10 08:31:16 51°14.372 2°55.026 -999 -999 -999 -999 -999
2004-12-10 08:31:20 51°14.377 2°55.008 -999 -999 -999 -999 -999
2004-12-10 08:31:26 51°14.384 2°54.98 -999 -999 -999 -999 -999
2004-12-10 08:31:30 51°14.387 2°54.96 -999 -999 -999 -999 -999
2004-12-10 08:31:34 51°14.39 2°54.939 -999 -999 -999 -999 -999
2004-12-10 08:31:46 51°14.399 2°54.878 -999 -999 -999 -999 -999
2004-12-10 08:31:56 51°14.403 2°54.825 -999 -999 -999 -999 -999
2004-12-10 08:32:10 51°14.405 2°54.747 -999 -999 -999 -999 -999
2004-12-10 08:32:14 51°14.406 2°54.724 -999 -999 -999 -999 -999
2004-12-10 08:32:20 51°14.406 2°54.69 -999 -999 -999 -999 -999
2004-12-10 08:32:23 51°14.407 2°54.673 -999 -999 -999 -999 -999
2004-12-10 08:32:29 51°14.409 2°54.638 -999 -999 -999 -999 -999
2004-12-10 08:32:34 51°14.409 2°54.609 -999 -999 -999 -999 -999
2004-12-10 08:32:41 51°14.41 2°54.569 -999 -999 -999 -999 -999
2004-12-10 08:32:46 51°14.409 2°54.54 -999 -999 -999 -999 -999
2004-12-10 08:32:50 51°14.408 2°54.517 -999 -999 -999 -999 -999
2004-12-10 08:32:54 51°14.406 2°54.495 -999 -999 -999 -999 -999
2004-12-10 08:32:59 51°14.403 2°54.467 -999 -999 -999 -999 -999
2004-12-10 08:33:04 51°14.399 2°54.439 -999 -999 -999 -999 -999
2004-12-10 08:33:08 51°14.395 2°54.417 -999 -999 -999 -999 -999
2004-12-10 08:33:13 51°14.389 2°54.391 -999 -999 -999 -999 -999
2004-12-10 08:33:20 51°14.38 2°54.354 -999 -999 -999 -999 -999
2004-12-10 08:33:24 51°14.374 2°54.334 -999 -999 -999 -999 -999
2004-12-10 08:33:30 51°14.365 2°54.303 -999 -999 -999 -999 -999
2004-12-10 08:33:35 51°14.357 2°54.277 -999 -999 -999 -999 -999
2004-12-10 08:33:40 51°14.35 2°54.251 -999 -999 -999 -999 -999
2004-12-10 08:33:50 51°14.334 2°54.2 -999 -999 -999 -999 -999
2004-12-10 08:33:57 51°14.323 2°54.164 -999 -999 -999 -999 -999
2004-12-10 08:33:59 51°14.32 2°54.153 -999 -999 -999 -999 -999
2004-12-10 08:34:06 51°14.308 2°54.118 -999 -999 -999 -999 -999
2004-12-10 08:34:12 51°14.298 2°54.087 -999 -999 -999 -999 -999
2004-12-10 08:34:16 51°14.292 2°54.067 -999 -999 -999 -999 -999
2004-12-10 08:34:22 51°14.282 2°54.036 -999 -999 -999 -999 -999
2004-12-10 08:34:26 51°14.275 2°54.015 -999 -999 -999 -999 -999
2004-12-10 08:34:30 51°14.269 2°53.995 -999 -999 -999 -999 -999
2004-12-10 08:34:37 51°14.256 2°53.96 -999 -999 -999 -999 -999
2004-12-10 08:34:42 51°14.247 2°53.936 -999 -999 -999 -999 -999
2004-12-10 08:34:44 51°14.243 2°53.927 -999 -999 -999 -999 -999
2004-12-10 08:34:56 51°14.218 2°53.87 -999 -999 -999 -999 -999
2004-12-10 08:35:10 51°14.191 2°53.803 -999 -999 -999 -999 -999
2004-12-10 08:35:14 51°14.184 2°53.783 -999 -999 -999 -999 -999
2004-12-10 08:35:20 51°14.173 2°53.753 -999 -999 -999 -999 -999
2004-12-10 08:35:24 51°14.166 2°53.734 -999 -999 -999 -999 -999
2004-12-10 08:35:30 51°14.155 2°53.705 -999 -999 -999 -999 -999
2004-12-10 08:35:35 51°14.145 2°53.68 -999 -999 -999 -999 -999
2004-12-10 08:35:45 51°14.127 2°53.631 -999 -999 -999 -999 -999
2004-12-10 08:35:53 51°14.112 2°53.591 -999 -999 -999 -999 -999
2004-12-10 08:36:01 51°14.097 2°53.552     -999 -999 -999
2004-12-10 08:39:18 51°13.746 2°52.576 13 334 -999 -999 -999
2004-12-10 08:51:28 51°12.498 2°48.983 13 335 -999 -999 -999
2004-12-10 08:51:38 51°12.482 2°48.934 12.9 333 -999 -999 -999
2004-12-10 09:13:50 51°10.496 2°42.402 11.5 332 -999 -999 -999
2004-12-10 09:22:36 51°9.775 2°39.809 12.2 336 -999 -999 -999
2004-12-10 09:37:38 51°9.223 2°37.293 7.4 302 -999 -999 -999
2004-12-10 09:43:01 51°9.259 2°37.303 7.3 307 -999 -999 -999
2004-12-10 10:47:18 51°11.158 2°40.882 6.3 166 -999 -999 -999
2004-12-10 10:50:38 51°11.325 2°41.04 7.9 218 -999 -999 -999
2004-12-10 12:14:50 51°14.257 2°49.555 6.3 115 -999 -999 -999